Other Surface Observations
Issued by NWS Great Falls, MT

Home | Current Version | Previous Version | Text Only | Print | Product List | Glossary On
Versions: 1 2 3 4 5 6 7 8 9 10 11 12 13 14 15 16 17 18 19 20 21 22 23 24 25 26 27 28 29 30 31 32 33 34 35 36 37 38 39 40 41 42 43 44 45 46 47 48 49 50
000
SXUS55 KTFX 280641
OSOTFX

AREA AWOS OBSERVATIONS
NATIONAL WEATHER SERVICE GREAT FALLS MT
1241 AM MDT Wed Jun 28 2017

METAR K6S0 280640Z AUTO 30015G21KT 10SM SCT120 17/06 A2990 RMK A01
METAR K6S8 280640Z AUTO 23006KT 10SM 16/07 A2982 RMK A01



USA.gov is the U.S. government's official web portal to all federal, state and local government web resources and services.